Tracking 27428 objects as of 31-May-2023
HD Live streaming from Space Station
objects crossing your sky now

STARLINK-4792

Track STARLINK-4792 now!
10-day predictions
STARLINK-4792 is classified as:


NORAD ID: 53862
Int'l Code: 2022-114AW
Perigee: 546.4 km
Apogee: 547.4 km
Inclination: 53.2 °
Period: 95.4 minutes
Semi major axis: 6917 km
RCS: Unknown
Launch date: September 19, 2022
Source: United States (US)
Launch site: AIR FORCE EASTERN TEST RANGE (AFETR)
Your satellite tracking list
Your tracking list is empty




NASA's NSSDC Master Catalog

Two Line Element Set (TLE):
1 53862U 22114AW  23151.16569187  .00001119  00000-0  88399-4 0  9992
2 53862  53.2157 154.0424 0000771  71.8646 288.2430 15.08835532 39566
Source of the keplerian elements: AFSPC